SCP
0 0 1 1 1 0 0 0 0 0 0 0 0 0 0 0 0 0 0 0 0 0 0 0 0 0 0 0 0 0 0 0 0 0 0 0 0 0 0 0 0 0 0 0 0 0 0 0 0
0 1 1 1 1 0 0 0 0 0 0 0 0 0 0 0 0 0 0 0 0 0 0 0 0 0 0 0 0 0 0 0 0 0 0 0 0 0 0 0 0 0 0 0 0 0 0 0 0
1 1 1 1 0 0 0 0 0 0 0 0 0 0 0 0 0 0 0 0 0 0 0 0 0 0 0 0 0 0 0 0 0 0 0 0 0 0 0 0 0 0 0 0 0 0 0 0 0
1 1 1 0 0 0 0 0 0 0 0 0 0 0 0 0 0 0 0 0 0 0 0 0 0 0 0 0 0 0 0 0 0 0 0 0 0 0 0 0 0 0 0 0 0 0 0 0 0
1 1 1 0 0 0 0 0 0 0 0 0 0 0 0 0 0 0 0 0 0 0 0 0 0 0 0 0 0 0 0 0 0 0 0 0 0 0 0 0 0 0 0 0 0 0 0 0 0
1 1 0 0 0 0 0 0 0 0 0 0 0 0 0 0 0 0 0 0 0 0 0 0 0 0 0 0 0 0 0 0 0 0 0 0 0 0 0 0 0 0 0 0 0 0 0 0 0
1 0 0 0 0 0 0 0 0 0 0 0 0 0 0 0 0 0 0 0 0 0 0 0 0 0 0 0 0 0 0 0 0 0 0 0 0 0 0 0 0 0 0 0 0 0 0 0 0
0 0 0 0 0 0 0 0 0 0 0 0 0 0 0 0 0 0 0 0 0 0 0 0 0 0 0 0 0 0 0 0 0 0 0 0 0 0 0 0 0 0 0 0 0 0 0 0 0
0 0 0 0 0 0 0 0 0 0 0 0 0 0 0 0 0 0 0 0 0 0 0 0 0 0 0 0 0 0 0 0 0 0 0 0 0 0 0 0 0 0 0 0 0 0 0 0 0
0 0 0 0 0 0 0 0 0 0 0 0 0 0 0 0 0 0 0 0 0 0 0 0 0 0 0 0 0 0 0 0 0 0 0 0 0 0 0 0 0 0 0 0 0 0 0 0 0
0 0 0 0 0 0 0 0 0 0 0 0 0 0 0 0 0 0 0 0 0 0 0 0 0 0 0 0 0 0 0 0 0 0 0 0 0 0 0 0 0 0 0 0 0 0 0 0 0
0 0 0 0 0 0 0 0 0 0 0 0 0 0 0 0 0 0 0 0 0 0 0 0 0 0 0 0 0 0 0 0 0 0 0 0 0 0 0 0 0 0 0 0 0 0 0 0 0
0 0 0 0 0 0 0 0 0 0 0 0 0 0 0 0 0 0 0 0 0 0 0 0 1 0 0 0 0 0 0 0 0 0 0 0 0 0 0 0 0 0 0 0 0 0 0 0 0
0 0 0 0 0 0 0 0 0 0 0 0 0 0 0 0 0 0 0 0 0 1 1 1 1 1 0 0 0 0 0 0 0 0 0 0 0 0 0 0 0 0 0 0 0 0 0 0 0
0 0 0 0 0 0 0 0 0 0 0 0 0 0 0 0 0 0 1 1 1 1 1 1 1 1 0 0 0 0 0 0 0 0 0 0 0 0 0 0 0 0 0 0 0 0 0 0 0
0 0 0 0 0 0 0 0 0 0 0 0 0 0 0 0 0 0 1 1 1 1 1 1 1 1 1 0 0 0 0 0 0 0 0 0 0 0 0 0 0 0 0 0 0 0 0 0 0
0 0 0 0 0 0 0 0 0 0 0 0 0 0 0 0 0 1 1 1 1 1 1 1 1 1 1 1 0 0 0 0 0 0 0 0 0 0 0 0 0 0 0 0 0 0 0 0 0
0 0 0 0 0 0 0 0 0 0 0 0 0 0 0 1 1 1 1 1 1 1 1 1 1 1 1 1 1 1 0 0 0 0 0 0 0 0 0 0 0 0 0 0 0 0 0 0 0
0 0 0 0 0 0 0 0 0 0 0 0 0 0 1 1 1 1 1 1 1 1 1 1 1 1 1 1 1 1 1 1 1 1 1 1 1 0 0 0 0 0 0 0 0 0 0 0 0
0 0 0 0 0 0 0 0 0 0 0 0 0 0 1 1 1 1 1 1 1 1 1 1 1 1 1 1 1 1 1 1 1 1 1 1 1 1 1 1 1 1 1 0 0 0 0 0 0
0 0 0 0 0 0 0 0 0 0 0 0 0 0 1 1 1 1 1 1 1 1 1 1 1 1 1 1 1 1 1 1 1 1 1 1 1 1 1 1 1 1 1 1 0 0 0 0 0
0 0 0 0 0 0 0 0 0 0 0 0 0 0 0 1 1 1 1 1 1 1 1 1 2 2 1 1 1 1 1 1 1 1 1 1 1 1 1 1 1 1 1 1 1 0 0 0 0
0 0 0 0 0 0 0 0 0 0 0 0 0 0 0 1 1 1 1 1 1 1 1 2 2 2 2 1 1 1 1 1 1 1 1 1 1 1 1 1 1 1 1 1 1 1 0 0 0
0 0 0 0 0 0 0 0 0 0 0 0 0 0 1 1 1 1 1 1 1 1 1 2 2 2 2 1 1 1 1 1 1 1 1 1 1 1 1 1 1 1 1 1 1 1 1 0 0
0 0 0 0 0 0 0 0 0 0 0 0 0 1 1 1 1 1 1 1 1 1 2 2 2 2 2 1 1 1 1 1 1 1 1 1 1 1 1 1 1 1 1 1 1 1 1 0 0
0 0 0 0 0 0 0 0 0 0 0 0 0 1 1 1 1 1 2 2 2 2 2 2 2 2 2 2 1 1 1 1 1 1 1 1 1 1 1 1 1 1 1 1 1 1 1 1 1
0 0 0 0 0 0 0 0 0 0 0 0 0 0 1 1 1 1 1 2 2 2 2 2 3 2 2 2 1 1 1 1 1 1 1 1 1 1 1 1 1 1 1 1 1 1 1 1 1
0 0 0 0 0 0 0 0 1 1 1 0 0 0 1 1 1 1 1 1 1 2 2 2 3 2 2 2 1 1 1 1 1 1 1 1 1 1 1 1 1 1 1 1 1 1 1 1 1
0 0 0 0 0 0 0 0 1 1 1 1 1 1 1 1 1 1 1 1 1 1 2 2 2 2 2 2 2 1 1 1 1 1 1 1 1 1 2 2 1 1 1 1 1 1 1 1 1
0 0 0 0 0 0 0 0 0 1 1 1 1 1 1 1 1 1 1 2 2 2 2 2 2 2 2 2 2 2 1 1 1 2 2 2 2 2 2 2 2 1 1 1 1 1 1 1 1
Wind_Speed
11 11 10 6 5 1 12 14 14 13 13 13 13 14 17 15 11 11 10 14 15 15 13 13 12 12 11 10 10 10 10 10 10 11 11 11 11 11 11 11 11 10 10 10 10 10 9 10 10
10 12 9 6 2 7 13 13 13 12 11 12 15 17 17 16 14 13 11 12 14 15 13 12 12 12 11 10 9 10 10 10 10 10 10 10 10 10 10 10 10 10 10 9 9 9 9 9 9
11 12 7 4 8 12 13 12 11 11 10 12 15 16 13 12 13 11 12 14 14 15 14 13 13 12 11 11 10 10 10 10 10 10 10 10 10 10 9 9 9 9 9 9 9 9 9 9 8
8 7 5 3 15 15 13 11 11 12 10 11 13 13 13 12 12 13 13 15 16 16 15 13 13 12 12 11 10 10 10 10 10 9 9 9 9 9 9 9 8 9 9 8 8 9 9 8 7
8 6 2 9 16 14 12 11 12 12 12 16 16 16 15 14 14 14 12 13 14 15 15 13 13 12 12 11 11 10 10 9 9 9 9 9 8 8 8 8 8 8 8 8 8 8 8 7 6
7 5 3 11 15 13 12 11 13 13 13 15 17 16 12 13 12 12 12 10 13 15 15 13 13 13 12 11 10 10 9 9 9 8 8 8 7 7 7 7 7 7 7 7 8 8 7 6 5
7 3 6 13 13 12 12 12 12 13 12 12 14 15 12 13 11 11 11 10 11 13 15 13 12 11 11 11 10 9 9 9 8 8 8 7 7 6 7 6 6 7 7 7 7 7 7 6 5
6 2 7 10 12 13 13 13 12 12 11 9 9 12 13 14 12 11 11 10 9 10 11 12 13 12 10 10 10 10 9 8 8 8 8 7 6 6 7 7 7 7 7 7 7 7 6 6 5
6 1 7 10 11 12 11 12 12 12 11 11 13 16 18 17 14 12 11 10 8 8 8 9 10 11 10 10 11 10 9 8 8 7 8 7 4 5 6 7 8 7 7 7 7 7 7 6 6
1 5 9 10 11 11 11 10 10 11 11 14 16 18 18 16 13 12 11 11 10 9 9 7 8 8 8 8 8 7 7 7 5 5 6 4 3 2 5 8 8 8 7 7 8 8 7 6 4
4 7 8 10 10 10 9 9 9 9 11 14 17 18 16 15 12 11 11 10 10 9 8 8 7 6 6 5 5 3 3 4 5 5 4 3 2 2 3 3 4 5 7 5 6 7 5 5 4
3 6 7 8 7 7 8 9 8 9 13 15 16 17 15 13 11 10 10 10 10 9 9 9 8 5 4 4 4 4 3 3 4 4 4 3 2 2 2 2 3 3 3 3 4 3 4 3 3
2 4 5 6 6 6 7 8 9 12 14 16 17 16 14 13 11 9 10 9 9 9 8 8 7 6 4 2 1 3 3 3 4 4 4 3 3 2 2 2 2 3 2 3 3 3 3 2 3
1 2 3 4 5 6 5 7 8 13 15 16 16 15 14 12 12 11 10 9 9 8 8 8 8 7 5 3 2 2 3 3 3 4 5 4 2 2 2 1 1 1 2 2 2 2 2 2 3
3 2 3 5 5 6 4 5 8 14 15 15 15 14 13 12 11 11 11 9 9 8 7 8 8 8 6 5 5 3 3 4 3 3 4 4 3 3 2 2 2 2 2 2 2 3 3 3 3
7 7 6 6 6 6 5 4 10 14 14 14 14 14 13 11 12 11 11 9 9 9 8 7 7 9 7 4 3 2 2 3 3 3 3 4 4 4 3 3 2 3 2 2 2 2 2 2 2
11 9 8 7 7 6 6 6 12 13 14 14 13 14 14 12 11 11 12 11 9 9 8 7 4 7 8 6 4 3 2 2 3 3 3 4 5 5 4 3 2 3 3 2 3 2 2 2 2
11 7 6 6 7 5 4 7 11 13 14 14 14 14 14 14 13 12 12 12 10 9 8 7 6 5 5 5 4 3 3 3 3 3 3 4 3 4 3 3 3 3 2 2 2 2 2 2 3
11 9 7 3 4 4 5 7 10 12 13 14 14 14 14 14 14 14 13 13 13 10 9 8 7 7 5 4 4 4 4 3 3 4 5 5 4 4 3 2 2 3 2 3 3 2 3 3 3
13 11 9 4 4 5 6 7 9 11 11 13 14 14 15 15 15 14 13 13 13 12 10 9 8 8 7 5 3 3 3 3 3 3 4 5 5 5 5 4 3 3 2 3 2 2 2 3 2
13 11 10 8 6 8 7 8 9 11 11 11 13 14 15 16 17 16 15 14 13 13 12 10 9 9 8 6 4 3 3 2 2 3 3 4 5 5 4 4 4 3 3 3 3 3 4 3 2
12 12 11 10 8 8 7 7 8 10 11 12 12 13 14 15 16 16 15 14 14 14 13 10 10 8 8 7 6 6 4 4 4 3 3 4 5 5 5 5 4 3 2 3 3 3 3 3 3
12 12 11 11 10 11 11 9 6 10 10 11 12 12 13 14 16 17 17 15 14 14 13 11 10 9 8 8 7 6 5 4 3 3 3 3 4 5 5 4 4 3 3 3 3 1 2 2 3
12 13 12 12 11 12 12 11 6 5 8 8 10 10 11 13 14 15 16 14 12 13 13 13 11 10 9 8 7 6 5 4 3 3 3 4 3 4 5 5 4 4 3 3 2 2 3 3 3
14 12 10 11 10 11 10 10 4 5 7 6 8 9 10 11 12 12 12 13 12 13 13 13 13 11 10 10 8 7 6 5 4 4 4 4 3 3 5 5 4 4 3 3 3 3 3 3 3
15 16 12 11 10 9 8 8 5 4 6 6 6 8 9 10 12 12 12 11 10 11 12 12 13 11 11 10 8 7 6 5 5 5 4 4 3 3 4 5 4 4 4 4 3 3 4 3 3
16 16 16 14 13 12 8 5 5 4 4 5 5 6 8 8 10 11 12 12 11 10 9 10 11 10 10 10 8 7 7 6 5 5 5 4 3 3 4 5 5 4 4 4 3 2 2 2 2
17 15 10 11 11 12 9 7 5 5 4 4 4 5 5 7 9 10 11 11 11 11 9 9 9 9 9 9 8 8 7 7 5 4 4 4 3 3 3 4 4 4 4 4 3 3 3 2 2
17 18 14 10 10 11 9 3 3 4 3 4 4 5 5 4 6 8 9 10 10 10 9 9 9 8 8 8 7 6 7 7 6 5 5 4 3 3 4 4 4 4 4 4 4 4 3 3 2
16 16 15 11 10 11 10 3 2 4 3 3 4 6 6 5 4 7 8 8 8 8 9 8 9 9 8 8 6 6 5 6 6 6 5 5 4 4 4 4 4 4 4 4 4 4 3 3 2
Wind_Direction
184 200 210 231 243 112 64 63 61 63 62 60 60 68 64 56 70 91 109 112 115 114 115 111 106 104 102 103 106 108 107 107 107 107 108 108 108 108 108 108 108 109 110 109 108 107 107 108 112
206 211 220 239 248 73 66 66 68 67 73 76 71 74 74 70 81 100 111 116 117 117 116 111 112 108 106 105 108 112 108 105 104 106 108 108 109 110 110 111 111 112 112 111 110 111 113 114 117
238 239 251 244 59 66 71 73 81 79 76 80 75 64 65 83 93 105 118 120 114 109 110 113 116 112 110 108 106 107 106 107 105 105 105 105 107 111 114 114 114 114 113 112 111 115 116 117 121
238 230 234 67 69 70 75 80 89 88 82 83 86 79 72 80 99 112 121 120 117 116 115 116 118 117 115 112 109 108 106 107 107 106 105 105 107 111 115 118 118 117 116 115 114 119 120 122 127
241 253 193 79 76 76 76 77 79 78 77 82 88 92 88 88 106 119 119 118 119 118 117 122 122 122 121 118 115 113 111 110 109 108 108 107 109 111 113 119 120 120 122 123 124 125 126 128 135
251 252 83 82 80 77 79 83 88 89 90 97 104 103 101 115 120 123 119 120 120 122 120 125 127 127 125 123 122 121 121 120 119 117 116 115 116 115 117 124 127 130 131 130 131 133 135 139 149
262 305 76 87 89 84 81 79 81 90 92 95 109 110 122 131 131 126 124 121 123 125 129 137 138 135 132 130 129 126 126 128 128 127 128 128 128 129 132 137 140 142 141 141 141 144 146 152 166
262 326 61 82 91 88 88 86 84 88 91 105 115 116 130 135 136 131 128 121 120 125 131 143 146 144 148 142 140 135 134 137 138 139 142 143 148 154 155 152 153 153 153 154 154 158 160 170 186
270 14 71 80 89 97 97 97 98 99 98 84 78 106 128 137 139 141 134 129 129 127 131 138 140 149 150 146 147 150 148 150 154 156 162 168 179 169 169 154 156 163 166 165 167 171 177 187 203
10 67 70 82 97 105 105 107 113 109 105 100 99 111 129 140 149 149 144 144 144 142 137 132 136 143 145 142 146 160 160 158 178 160 172 185 177 153 145 145 160 170 174 176 182 187 192 203 208
53 70 76 84 97 111 118 119 115 119 119 120 126 133 141 148 156 153 151 147 145 144 141 142 138 134 134 133 150 149 144 156 169 164 170 163 151 146 139 150 162 176 182 187 182 195 208 209 208
64 73 78 87 98 108 108 109 106 97 108 122 132 140 146 156 157 156 149 142 142 142 147 141 130 123 114 120 132 149 155 158 155 153 173 156 153 151 145 153 166 177 182 182 188 198 213 216 211
61 91 98 103 112 104 109 115 115 111 117 127 135 144 153 159 157 148 137 137 140 142 141 128 121 118 115 111 171 154 154 160 155 157 173 166 167 162 165 171 170 187 182 182 190 202 204 210 227
78 93 118 126 133 129 131 135 131 127 130 135 143 152 159 159 155 148 144 145 141 141 136 130 136 140 145 164 193 183 165 158 158 159 163 170 166 148 159 168 162 193 188 177 179 197 198 221 232
239 236 216 174 166 140 148 154 138 135 141 148 153 157 159 161 157 156 154 154 149 147 143 144 152 150 165 177 192 191 186 167 163 155 161 175 174 155 166 197 192 198 189 190 197 209 210 218 226
252 239 230 196 177 160 199 163 136 146 154 158 161 161 163 165 165 162 157 156 153 152 152 169 169 157 166 183 198 199 196 155 152 174 170 180 177 174 183 200 202 193 205 200 196 211 223 232 238
251 239 219 192 183 178 201 153 154 162 165 165 168 166 165 169 173 165 163 160 157 154 158 168 164 158 169 176 188 202 186 166 174 179 174 180 185 182 187 196 192 196 205 206 222 189 207 226 239
256 254 234 199 176 193 207 172 164 168 171 170 173 173 171 175 178 170 170 163 161 159 162 166 170 170 172 174 184 195 197 185 187 183 175 183 191 185 192 198 196 213 208 208 223 198 213 226 234
260 268 269 245 186 208 220 200 172 172 177 172 175 177 178 180 177 171 174 170 168 167 167 172 180 173 181 186 190 189 194 199 190 188 178 186 191 190 202 222 195 221 218 209 219 221 230 236 231
256 263 269 251 212 236 241 236 186 174 188 177 178 180 182 179 176 172 177 178 175 172 171 174 180 176 185 189 192 198 198 207 191 188 170 180 186 194 207 203 215 218 221 221 228 230 248 255 226
251 256 258 258 243 235 244 246 211 182 183 182 184 183 186 184 178 175 181 184 180 175 177 183 182 179 187 185 187 201 190 219 205 181 180 188 189 195 213 196 218 224 221 209 216 226 235 250 256
251 253 257 259 262 266 244 245 216 190 184 185 186 187 188 186 179 176 181 187 184 179 179 177 173 176 180 186 199 198 198 203 206 190 183 186 189 200 206 203 210 217 229 213 221 213 230 240 256
257 261 264 264 260 263 260 258 221 187 186 191 186 191 191 185 181 177 182 186 185 181 176 173 170 176 178 188 200 207 211 213 206 186 177 189 195 205 208 202 204 208 223 226 223 211 237 250 250
255 257 257 259 258 251 249 254 234 195 185 186 183 188 187 182 181 179 180 176 180 177 174 171 170 175 180 189 197 202 213 220 218 193 179 193 197 203 202 200 196 206 220 217 210 219 232 239 251
236 244 247 246 243 246 244 251 214 181 186 185 176 181 177 174 174 174 174 174 176 176 176 171 170 177 183 189 197 199 207 211 212 212 204 208 204 199 195 197 182 200 214 216 210 218 233 230 234
235 239 242 253 261 262 249 241 220 210 175 163 165 163 165 173 174 173 172 167 171 177 174 171 170 176 183 188 193 195 201 208 209 213 220 204 209 204 178 174 179 191 206 222 206 221 227 218 225
244 243 248 254 254 261 253 238 229 188 159 149 140 143 158 168 171 169 167 167 167 171 169 169 166 173 181 186 186 191 196 205 213 203 206 216 215 199 170 173 185 195 203 219 220 223 237 224 225
245 254 254 254 261 261 245 227 208 164 163 144 132 127 131 158 161 163 163 166 169 171 165 161 161 170 179 184 190 192 193 198 208 208 208 211 211 206 170 177 190 197 200 205 212 223 224 216 224
228 238 247 259 263 264 260 229 155 121 160 154 141 120 119 123 151 153 155 159 162 163 162 164 163 169 176 186 192 192 188 194 198 201 207 211 213 199 190 193 198 198 201 203 205 219 210 213 223
242 239 237 240 251 265 271 247 143 117 128 139 120 96 93 97 110 133 140 139 149 158 163 166 172 178 182 184 184 191 187 190 198 203 202 199 201 201 198 199 199 204 204 198 203 220 214 210 214